Location: *
(41.7492°S, 135.4150°W)
Time: 22:16:00
(UTC+00:00)

METEOR M2 - Pass Details

Date: 02 July 2022
Orbit: 818 x 827 km, 98.4° (Epoch: 17 August)

Event Time Altitude Azimuth Distance (km) Brightness Sun altitude
Exits shadow 05:53:11 12° 257° (WSW) 2,311 ? -46.0°
Drops below altitude 10° 05:54:01 10° 265° (W) 2,437 ? -46.1°
Sets 05:57:39 0° 291° (WNW) 3,361 ? -46.8°
